This demonstration page uses our WeatherBlox Daily Observations layout. Learn more.

39.92423, -83.80882

Hourly Observations for August 27, 2018

Temp ( °F °C ) Dew Point ( °F °C ) Humidity (%) Winds ( mph kmh ) Pressure ( in mb ) Visibility ( mi km ) Precip ( " mm )
12:56 am 00:56 Clear 74 23.3 73 22.8 97 97 SW 6 9 30.09 1019 7 11.26538 0 0
1:56 am 01:56 Clear 73 22.8 73 22.8 100 100 S 3 6 30.09 1019 7 11.26538 0 0
2:56 am 02:56 Clear with Mist and Fog 72 22.2 72 22.2 100 100 SW 5 7 30.07 1018 5 8.0467 0 0
3:56 am 03:56 Clear with Mist and Fog 72 22.2 72 22.2 100 100 SW 7 11 30.08 1019 6 9.65604 0 0
4:56 am 04:56 Clear with Mist and Fog 72 22.2 72 22.2 100 100 SW 7 11 30.08 1019 6 9.65604 0 0
5:56 am 05:56 Clear with Mist and Fog 72 22.2 72 22.2 100 100 SSW 7 11 30.08 1019 6 9.65604 0 0
6:56 am 06:56 Clear with Mist and Fog 72 22.2 72 22.2 100 100 SSW 7 11 30.09 1019 5 8.0467 0 0
7:56 am 07:56 Sunny with Mist and Fog 73 22.8 73 22.8 100 100 SW 6 9 30.11 1020 4 6.43736 0 0
8:56 am 08:56 Sunny 76 24.4 74 23.3 94 94 SW 8 13 30.12 1020 7 11.26538 0 0
9:56 am 09:56 Sunny 79 26.1 74 23.3 85 85 SW 10 17 30.13 1020 9 14.48406 0 0
10:56 am 10:56 Mostly Sunny 82 27.8 75 23.9 79 79 SW 12 19 30.13 1020 10 16.0934 0 0
11:56 am 11:56 Sunny 85 29.4 75 23.9 72 72 WSW 10 17 30.12 1020 10 16.0934 0 0
12:56 pm 12:56 Mostly Sunny 87 30.6 74 23.3 65 65 SW 15 24 30.11 1020 10 16.0934 0 0
1:56 pm 13:56 Partly Cloudy 86 30 75 23.9 70 70 WSW 10 17 30.1 1019 10 16.0934 0 0
2:56 pm 14:56 Partly Cloudy 87 30.6 74 23.3 65 65 SW 13 20 30.09 1019 10 16.0934 0 0
3:56 pm 15:56 Mostly Cloudy 87 30.6 74 23.3 65 65 SSW 12 19 30.07 1018 10 16.0934 0 0
4:56 pm 16:56 Sunny 88 31.1 74 23.3 63 63 SSW 9 15 30.06 1018 10 16.0934 0 0
5:56 pm 17:56 Sunny 87 30.6 73 22.8 63 63 SSW 7 11 30.05 1018 10 16.0934 0 0
6:56 pm 18:56 Sunny 85 29.4 73 22.8 68 68 SSW 6 9 30.05 1018 10 16.0934 0 0
7:56 pm 19:56 Sunny 81 27.2 73 22.8 77 77 S 5 7 30.05 1018 10 16.0934 0 0
8:56 pm 20:56 Clear 78 25.6 73 22.8 85 85 S 3 6 30.04 1017 10 16.0934 0 0
9:56 pm 21:56 Clear 77 25 72 22.2 85 85 SSW 3 6 30.06 1018 10 16.0934 0 0
10:56 pm 22:56 Clear 76 24.4 72 22.2 88 88 SSW 3 6 30.06 1018 10 16.0934 0 0
11:56 pm 23:56 Clear 75 23.9 72 22.2 90 90 S 6 9 30.06 1018 10 16.0934 0 0

Powered by AerisWeather